SL-8 R/B (3230 NORAD) Tracking and Keplerian Element Data

This shows tracking and keplerian element data for the satellite.

Feedback or suggestion? Click here.




ElementValue
Catalog3230
NameSL-8 R/B
Epoch Orbit7805
Epoch Day354.09751789
Epoch Year2025
RAAN116.2422
Inclination74.0312
Eccentricity0.0025889
Argument of Perigee316.5087
Mean Anonmoly43.4058
Mean Motion15.02572952
Decay Rate2.825E-05
L11 03230U 68040B 25354.09751789 .00002825 00000+0 21400-3 0 9997
L22 03230 74.0312 116.2422 0025889 316.5087 43.4058 15.02572952 78059



Live tracking and technical data element details for SL-8 R/B (NORAD 3230). SL-8 R/B can be tracked NOW for your location showing map with azimuth and elevation plus other details from your city location.







IsCatalogInMostPopularTable: catalog: 3230, numindb: 369
Update: records affected: 1



GetName: 3230 SL-8 R/B

Hit Count: updated at: Sun, 19 Apr 2026 08:04:04 GMT